Date String (YYYY-MM-DD hh:mm:ss) UTC,Instrument flags,absolute air pressure of the measurement (hPa),sample flow rate (lpm),inlet stack bypass flow (lpm),air temperature of the measurement (°C),ambient temperature measured by the external sensor (°C),aerosol sample conditioner tube jacket temperature (°C),OPC LED temperature (°C),internal box temperature (°C),relative humidity of the measurement (%),span deviation,mass concentration of particles derived from Lorenz-Mie calculation of OPC scattering (μg/m³),mass concentration of particles derived from Lorenz-Mie calculation of OPC scattering (μg/m³),mass concentration of particles derived from Lorenz-Mie calculation of OPC scattering (μg/m³)
DateTimeUTC,F1_M11,P_M11,Q1_M11,Q2_M11,T1_M11,T2_M11,T3_M11,T4_M11,T5_M11,U1_M11,ZSPAN_M11,X0_M11,X2_M11,X1_M11
2023-07-09 16:00:00,SystemResetWarning,0832.3,4.98,000.00,030.3,027.9,000.0,038.3,031.1,33.1,-000.1,0011.80,0006.06,0005.58
2023-07-09 16:01:00,SystemResetWarning,0832.3,5.01,000.00,030.4,028.0,000.0,038.4,031.2,33.4,-000.8,0011.79,0006.08,0005.58
2023-07-09 16:02:00,SystemResetWarning,0832.3,5.01,000.00,030.4,028.1,000.0,038.4,031.3,32.9,-000.3,0011.72,0006.10,0005.59
2023-07-09 16:03:00,SystemResetWarning,0832.3,4.98,000.00,030.4,027.4,000.0,038.4,031.2,32.9,-000.2,0010.82,0006.10,0005.58
2023-07-09 16:04:00,SystemResetWarning,0832.3,5.00,000.00,030.4,025.9,000.0,038.3,031.0,33.6,0000.0,0010.68,0006.09,0005.58
2023-07-09 16:05:00,SystemResetWarning,0832.3,5.01,000.00,030.3,025.3,000.0,038.2,030.9,32.9,0000.1,0010.47,0006.05,0005.59
2023-07-09 16:06:00,SystemResetWarning,0832.3,5.01,000.00,030.2,025.5,000.0,038.2,030.7,33.1,0000.1,0010.70,0006.03,0005.60
2023-07-09 16:07:00,SystemResetWarning,0832.3,4.98,000.00,030.1,025.8,000.0,038.3,030.7,33.9,0000.1,0010.39,0006.02,0005.62
2023-07-09 16:08:00,SystemResetWarning,0832.3,4.99,000.00,030.1,026.3,000.0,038.3,030.7,34.4,0000.6,0009.85,0006.03,0005.64
2023-07-09 16:09:00,SystemResetWarning,0832.3,5.01,000.00,030.0,026.6,000.0,038.3,030.8,33.9,0000.5,0009.79,0006.01,0005.64
2023-07-09 16:10:00,SystemResetWarning,0832.2,5.01,000.00,030.0,027.0,000.0,038.4,030.9,34.4,0000.8,0009.82,0006.03,0005.65
2023-07-09 16:11:00,SystemResetWarning,0832.3,5.00,000.00,030.1,027.3,000.0,038.4,030.9,34.7,0000.4,0009.67,0006.06,0005.68
2023-07-09 16:12:00,SystemResetWarning,0832.3,4.99,000.00,030.1,027.5,000.0,038.4,031.0,34.3,0000.6,0009.86,0006.10,0005.70
2023-07-09 16:13:00,SystemResetWarning,0832.3,5.00,000.00,030.2,027.8,000.0,038.4,031.1,34.1,0001.0,0010.26,0006.13,0005.72
2023-07-09 16:14:00,SystemResetWarning,0832.3,4.99,000.00,030.2,027.9,000.0,038.4,031.2,34.1,0000.9,0011.10,0006.18,0005.74
2023-07-09 16:15:00,SystemResetWarning,0832.3,5.00,000.00,030.2,028.1,000.0,038.4,031.2,33.7,0001.3,0012.09,0006.24,0005.78
2023-07-09 16:16:00,SystemResetWarning,0832.3,5.00,000.00,030.3,027.8,000.0,038.4,031.2,33.9,0001.2,0012.63,0006.28,0005.80
2023-07-09 16:17:00,SystemResetWarning,0832.3,5.00,000.00,030.2,026.3,000.0,038.3,031.1,33.7,0000.9,0012.61,0006.36,0005.82
2023-07-09 16:18:00,SystemResetWarning,0832.3,5.00,000.00,030.2,025.3,000.0,038.2,030.9,32.9,0000.7,0012.62,0006.44,0005.84
2023-07-09 16:19:00,SystemResetWarning,0832.3,5.01,000.00,030.1,025.3,000.0,038.2,030.7,34.0,0000.5,0012.84,0006.45,0005.84
2023-07-09 16:20:00,SystemResetWarning,0832.3,5.01,000.00,029.9,025.6,000.0,038.2,030.6,34.1,0000.5,0012.85,0006.48,0005.85
2023-07-09 16:21:00,SystemResetWarning,0832.3,4.99,000.00,029.9,026.1,000.0,038.2,030.6,34.1,0001.1,0012.97,0006.54,0005.88
2023-07-09 16:22:00,SystemResetWarning,0832.3,4.99,000.00,029.9,026.5,000.0,038.2,030.7,34.3,0001.0,0013.48,0006.56,0005.90
2023-07-09 16:23:00,SystemResetWarning,0832.3,5.00,000.00,029.9,026.8,000.0,038.2,030.8,34.5,0001.2,0013.36,0006.60,0005.93
2023-07-09 16:24:00,SystemResetWarning,0832.3,5.01,000.00,029.9,027.1,000.0,038.3,030.9,34.3,0000.7,0012.90,0006.63,0005.96
2023-07-09 16:25:00,SystemResetWarning,0832.3,5.00,000.00,029.9,027.4,000.0,038.3,030.9,34.6,0000.4,0012.40,0006.66,0005.99
2023-07-09 16:26:00,SystemResetWarning,0832.3,5.00,000.00,029.9,027.6,000.0,038.3,031.0,34.9,0000.0,0011.72,0006.65,0005.99
2023-07-09 16:27:00,SystemResetWarning,0832.3,4.99,000.00,030.0,027.8,000.0,038.3,031.1,33.6,-001.1,0010.88,0006.68,0006.02
2023-07-09 16:28:00,SystemResetWarning,0832.3,5.00,000.00,030.1,028.0,000.0,038.3,031.2,33.8,-001.6,0010.92,0006.68,0006.03
2023-07-09 16:29:00,SystemResetWarning,0832.3,5.01,000.00,030.1,028.0,000.0,038.3,031.2,33.0,-001.8,0011.03,0006.68,0006.05
2023-07-09 16:30:00,SystemResetWarning,0832.3,4.98,000.00,030.2,026.9,000.0,038.2,031.1,33.7,-001.3,0010.53,0006.65,0006.07
2023-07-09 16:31:00,SystemResetWarning,0832.3,5.01,000.00,030.1,025.5,000.0,038.1,030.9,33.2,-001.1,0010.53,0006.67,0006.09
2023-07-09 16:32:00,SystemResetWarning,0832.3,5.01,000.00,030.0,025.3,000.0,038.0,030.8,34.4,-001.5,0010.51,0006.66,0006.10
2023-07-09 16:33:00,SystemResetWarning,0832.2,4.97,000.00,029.9,025.6,000.0,038.1,030.6,35.3,-001.4,0010.47,0006.65,0006.11
2023-07-09 16:34:00,SystemResetWarning,0832.2,5.03,000.00,030.0,026.0,000.0,038.1,030.7,35.1,-001.6,0010.65,0006.67,0006.13
2023-07-09 16:35:00,SystemResetWarning,0832.2,5.01,000.00,030.1,026.4,000.0,038.2,030.8,35.1,-002.0,0010.60,0006.66,0006.12
2023-07-09 16:36:00,SystemResetWarning,0832.3,4.99,000.00,030.4,026.8,000.0,038.2,031.0,34.6,-002.1,0010.62,0006.65,0006.12
2023-07-09 16:37:00,SystemResetWarning,0832.3,5.00,000.00,030.6,027.1,000.0,038.2,031.1,33.9,-001.9,0010.76,0006.65,0006.13
2023-07-09 16:38:00,SystemResetWarning,0832.3,4.99,000.00,030.7,027.4,000.0,038.3,031.1,34.5,-001.0,0010.85,0006.64,0006.13
2023-07-09 16:39:00,SystemResetWarning,0832.3,5.01,000.00,030.8,027.6,000.0,038.4,031.2,33.2,0000.0,0010.74,0006.61,0006.13
2023-07-09 16:40:00,SystemResetWarning,0832.3,5.00,000.00,030.9,027.8,000.0,038.5,031.2,33.1,0000.0,0010.59,0006.57,0006.12
2023-07-09 16:41:00,SystemResetWarning,0832.3,4.98,000.00,030.9,028.0,000.0,038.6,031.3,34.4,0000.0,0010.85,0006.59,0006.10
2023-07-09 16:42:00,SystemResetWarning,0832.3,5.00,000.00,031.0,027.9,000.0,038.6,031.4,33.7,0000.0,0011.04,0006.62,0006.08
2023-07-09 16:43:00,SystemResetWarning,0832.3,5.00,000.00,031.0,026.5,000.0,038.5,031.3,33.7,0000.0,0011.16,0006.63,0006.06
2023-07-09 16:44:00,SystemResetWarning,0832.3,5.01,000.00,030.9,025.4,000.0,038.5,031.1,34.0,0000.0,0011.22,0006.62,0006.04
2023-07-09 16:45:00,SystemResetWarning,0832.3,5.01,000.00,030.8,025.3,000.0,038.5,030.9,33.3,0000.0,0010.96,0006.59,0006.01
2023-07-09 16:46:00,SystemResetWarning,0832.4,4.99,000.00,030.7,025.6,000.0,038.5,030.7,34.2,0000.0,0010.91,0006.58,0006.00
2023-07-09 16:47:00,SystemResetWarning,0832.3,4.99,000.00,030.6,026.1,000.0,038.6,030.8,35.5,0000.0,0010.81,0006.53,0006.00
2023-07-09 16:48:00,SystemResetWarning,0832.3,5.02,000.00,030.8,026.5,000.0,038.6,031.0,35.1,0000.0,0010.65,0006.52,0005.99
2023-07-09 16:49:00,SystemResetWarning,0832.4,5.00,000.00,031.1,026.8,000.0,038.7,031.2,34.7,0000.0,0010.59,0006.51,0005.98
2023-07-09 16:50:00,SystemResetWarning,0832.4,5.00,000.00,031.3,027.2,000.0,038.7,031.3,33.5,-001.1,0010.74,0006.53,0005.98
2023-07-09 16:51:00,SystemResetWarning,0832.4,4.99,000.00,031.4,027.5,000.0,038.8,031.4,32.9,-001.3,0011.04,0006.52,0005.99
2023-07-09 16:52:00,SystemResetWarning,0832.4,4.99,000.00,031.5,027.7,000.0,038.9,031.4,32.3,-000.9,0010.99,0006.53,0006.01
2023-07-09 16:53:00,SystemResetWarning,0832.4,5.00,000.00,031.5,027.9,000.0,039.0,031.4,32.1,-001.2,0010.87,0006.52,0006.04
2023-07-09 16:54:00,SystemResetWarning,0832.5,5.00,000.00,031.5,028.0,000.0,039.0,031.5,31.4,-001.7,0011.07,0006.51,0006.06
2023-07-09 16:55:00,SystemResetWarning,0832.4,5.00,000.00,031.6,026.9,000.0,039.0,031.5,31.1,-001.7,0010.78,0006.51,0006.06
2023-07-09 16:56:00,SystemResetWarning,0832.4,5.00,000.00,031.6,025.6,000.0,038.9,031.3,30.9,-001.5,0010.57,0006.51,0006.07
2023-07-09 16:57:00,SystemResetWarning,0832.4,5.01,000.00,031.5,025.3,000.0,038.9,031.1,32.5,-001.1,0010.56,0006.50,0006.08
2023-07-09 16:58:00,SystemResetWarning,0832.4,5.01,000.00,031.3,025.5,000.0,039.0,030.9,33.4,-000.7,0010.65,0006.53,0006.09
2023-07-09 16:59:00,SystemResetWarning,0832.3,5.00,000.00,031.2,025.9,000.0,039.0,030.9,34.1,-000.8,0010.66,0006.56,0006.09
